When you browse on this site, cookies collect data to enhance your experience and personalize the content and advertising you see.
Visit our Privacy Policy to learn more. By continuing to use the site, you agree to this use of cookies and data.
  • In United Kingdom
  • List of Countries
  • For 7 days
  • Water Temperature
  • Satellite Maps
  • Weather Map
  • Weather Widgets
  • user-avatar
    Login

    Hourly Weather Peshawar

    Today, 23 April, Tuesday

    Time Temperature Precipitation Wind Pressure Humidity
    00:00 +29°C° 0 mm 4 mps 752 mmHg 71%
    01:00 +29°C° 0 mm 5 mps 752 mmHg 72%
    02:00 +28°C° 0 mm 5 mps 752 mmHg 73%
    03:00 +28°C° 0 mm 4 mps 751 mmHg 74%
    04:00 +28°C° 0 mm 4 mps 751 mmHg 74%
    05:00 +29°C° 0 mm 4 mps 751 mmHg 71%
    06:00 +29°C° 0 mm 4 mps 752 mmHg 68%
    07:00 +30°C° 0 mm 4 mps 752 mmHg 65%
    08:00 +33°C° 0 mm 5 mps 752 mmHg 56%
    09:00 +34°C° 0 mm 5 mps 752 mmHg 46%
    10:00 +37°C° 0 mm 5 mps 752 mmHg 36%
    11:00 +38°C° 0 mm 6 mps 752 mmHg 35%
    12:00 +39°C° 0 mm 7 mps 751 mmHg 34%
    13:00 +39°C° 0 mm 7 mps 751 mmHg 34%
    14:00 +38°C° 0 mm 8 mps 751 mmHg 38%
    15:00 +37°C° 0 mm 8 mps 751 mmHg 43%
    16:00 +36°C° 0 mm 6 mps 751 mmHg 40%
    17:00 +34°C° 0 mm 6 mps 751 mmHg 49%
    18:00 +33°C° 0 mm 6 mps 752 mmHg 57%
    19:00 +30°C° 0 mm 6 mps 752 mmHg 65%
    20:00 +30°C° 0 mm 6 mps 753 mmHg 67%
    21:00 +30°C° 0 mm 6 mps 753 mmHg 68%
    22:00 +29°C° 0 mm 6 mps 753 mmHg 70%
    23:00 +29°C° 0 mm 6 mps 753 mmHg 72%

    Tomorrow, 24 April, Wednesday

    Time Temperature Precipitation Wind Pressure Humidity
    00:00 +29°C° 0 mm 6 mps 753 mmHg 74%
    01:00 +28°C° 0 mm 6 mps 753 mmHg 76%
    02:00 +28°C° 0 mm 6 mps 752 mmHg 76%
    03:00 +28°C° 0 mm 6 mps 752 mmHg 77%
    04:00 +28°C° 0 mm 6 mps 752 mmHg 78%
    05:00 +28°C° 0 mm 6 mps 752 mmHg 76%
    06:00 +29°C° 0 mm 6 mps 752 mmHg 74%
    07:00 +29°C° 0 mm 6 mps 753 mmHg 71%
    08:00 +32°C° 0 mm 7 mps 753 mmHg 64%
    09:00 +33°C° 0 mm 7 mps 753 mmHg 57%
    10:00 +35°C° 0 mm 7 mps 753 mmHg 49%
    11:00 +35°C° 0 mm 8 mps 752 mmHg 48%
    12:00 +37°C° 0 mm 8 mps 752 mmHg 47%
    13:00 +37°C° 0 mm 8 mps 751 mmHg 46%
    14:00 +37°C° 0 mm 8 mps 751 mmHg 48%
    15:00 +35°C° 0 mm 9 mps 751 mmHg 51%
    16:00 +34°C° 0 mm 9 mps 750 mmHg 53%
    17:00 +33°C° 0 mm 8 mps 751 mmHg 58%
    18:00 +32°C° 0 mm 7 mps 751 mmHg 62%
    19:00 +30°C° 0 mm 7 mps 751 mmHg 67%
    20:00 +30°C° 0 mm 6 mps 751 mmHg 69%
    21:00 +30°C° 0 mm 6 mps 752 mmHg 71%
    22:00 +30°C° 0 mm 6 mps 752 mmHg 73%
    23:00 +29°C° 0 mm 5 mps 752 mmHg 75%

    Day after tomorrow, 25 April, Thursday

    Time Temperature Precipitation Wind Pressure Humidity
    00:00 +29°C° 0 mm 5 mps 752 mmHg 77%
    01:00 +29°C° 0 mm 5 mps 751 mmHg 80%
    02:00 +28°C° 0 mm 5 mps 751 mmHg 81%
    03:00 +28°C° 0 mm 5 mps 751 mmHg 83%
    04:00 +28°C° 0 mm 5 mps 751 mmHg 84%
    05:00 +29°C° 0 mm 5 mps 751 mmHg 80%
    06:00 +29°C° 0 mm 5 mps 752 mmHg 76%
    07:00 +29°C° 0 mm 5 mps 752 mmHg 72%
    08:00 +32°C° 0 mm 6 mps 752 mmHg 63%
    09:00 +34°C° 0 mm 6 mps 753 mmHg 53%
    10:00 +36°C° 0 mm 7 mps 753 mmHg 43%
    11:00 +38°C° 0 mm 7 mps 752 mmHg 41%
    12:00 +38°C° 0 mm 7 mps 752 mmHg 38%
    13:00 +39°C° 0 mm 8 mps 752 mmHg 35%
    14:00 +39°C° 0 mm 7 mps 751 mmHg 35%
    15:00 +38°C° 0 mm 7 mps 751 mmHg 36%
    16:00 +38°C° 0 mm 7 mps 750 mmHg 37%
    17:00 +36°C° 0 mm 7 mps 751 mmHg 40%
    18:00 +35°C° 0 mm 6 mps 751 mmHg 43%
    19:00 +34°C° 0 mm 5 mps 751 mmHg 46%
    20:00 +33°C° 0 mm 5 mps 751 mmHg 45%
    21:00 +33°C° 0 mm 5 mps 752 mmHg 45%
    22:00 +33°C° 0 mm 5 mps 752 mmHg 44%
    23:00 +33°C° 0 mm 5 mps 751 mmHg 46%

    26 April, Friday

    Time Temperature Precipitation Wind Pressure Humidity
    00:00 +32°C° 0 mm 5 mps 751 mmHg 47%
    01:00 +32°C° 0 mm 4 mps 751 mmHg 49%
    02:00 +32°C° 0 mm 4 mps 750 mmHg 51%
    03:00 +30°C° 0 mm 4 mps 750 mmHg 52%
    04:00 +30°C° 0 mm 4 mps 750 mmHg 54%
    05:00 +31°C° 0 mm 3 mps 751 mmHg 51%
    06:00 +31°C° 0 mm 3 mps 751 mmHg 47%
    07:00 +33°C° 0 mm 3 mps 752 mmHg 44%
    08:00 +35°C° 0 mm 3 mps 752 mmHg 38%
    09:00 +37°C° 0 mm 3 mps 752 mmHg 31%
    10:00 +40°C° 0 mm 4 mps 753 mmHg 25%
    11:00 +41°C° 0 mm 5 mps 752 mmHg 24%
    12:00 +41°C° 0 mm 6 mps 752 mmHg 23%
    13:00 +43°C° 0 mm 7 mps 751 mmHg 22%
    14:00 +41°C° 0 mm 7 mps 751 mmHg 24%
    15:00 +40°C° 0 mm 8 mps 750 mmHg 27%
    16:00 +39°C° 0 mm 8 mps 750 mmHg 29%
    17:00 +37°C° 0 mm 8 mps 750 mmHg 33%
    18:00 +35°C° 0 mm 7 mps 751 mmHg 37%
    19:00 +34°C° 0 mm 7 mps 751 mmHg 41%
    20:00 +33°C° 0 mm 6 mps 751 mmHg 41%
    21:00 +33°C° 0 mm 6 mps 752 mmHg 42%
    22:00 +33°C° 0 mm 6 mps 752 mmHg 42%
    23:00 +32°C° 0 mm 6 mps 752 mmHg 43%

    27 April, Saturday

    Time Temperature Precipitation Wind Pressure Humidity
    00:00 +32°C° 0 mm 6 mps 751 mmHg 45%
    01:00 +30°C° 0 mm 6 mps 751 mmHg 46%
    02:00 +30°C° 0 mm 5 mps 751 mmHg 48%
    03:00 +30°C° 0 mm 5 mps 751 mmHg 50%
    04:00 +29°C° 0 mm 5 mps 751 mmHg 52%
    05:00 +30°C° 0 mm 5 mps 751 mmHg 50%
    06:00 +32°C° 0 mm 5 mps 752 mmHg 48%
    07:00 +32°C° 0 mm 5 mps 752 mmHg 45%
    08:00 +34°C° 0 mm 5 mps 752 mmHg 40%
    09:00 +36°C° 0 mm 5 mps 752 mmHg 34%
    10:00 +39°C° 0 mm 6 mps 752 mmHg 29%
    11:00 +39°C° 0 mm 6 mps 752 mmHg 28%
    12:00 +40°C° 0 mm 7 mps 751 mmHg 27%
    13:00 +41°C° 0 mm 8 mps 750 mmHg 26%
    14:00 +40°C° 0 mm 8 mps 750 mmHg 26%
    15:00 +40°C° 0 mm 8 mps 750 mmHg 25%
    16:00 +39°C° 0 mm 8 mps 749 mmHg 25%
    17:00 +38°C° 0 mm 7 mps 750 mmHg 28%
    18:00 +35°C° 0 mm 7 mps 750 mmHg 30%
    19:00 +34°C° 0 mm 6 mps 750 mmHg 32%
    20:00 +34°C° 0 mm 6 mps 751 mmHg 35%
    21:00 +33°C° 0 mm 6 mps 751 mmHg 37%
    22:00 +32°C° 0 mm 6 mps 751 mmHg 39%
    23:00 +32°C° 0 mm 6 mps 751 mmHg 43%

    28 April, Sunday

    Time Temperature Precipitation Wind Pressure Humidity
    00:00 +30°C° 0 mm 6 mps 750 mmHg 46%
    01:00 +30°C° 0 mm 6 mps 750 mmHg 50%
    02:00 +30°C° 0 mm 5 mps 750 mmHg 53%
    03:00 +29°C° 0 mm 5 mps 749 mmHg 55%
    04:00 +29°C° 0 mm 5 mps 749 mmHg 58%
    05:00 +30°C° 0 mm 5 mps 750 mmHg 55%
    06:00 +30°C° 0 mm 5 mps 750 mmHg 52%
    07:00 +32°C° 0 mm 5 mps 751 mmHg 49%
    08:00 +34°C° 0 mm 5 mps 751 mmHg 41%
    09:00 +36°C° 0 mm 5 mps 751 mmHg 33%
    10:00 +39°C° 0 mm 5 mps 751 mmHg 25%
    11:00 +40°C° 0 mm 6 mps 750 mmHg 22%
    12:00 +41°C° 0 mm 6 mps 749 mmHg 19%
    13:00 +42°C° 0 mm 6 mps 749 mmHg 16%
    14:00 +41°C° 0 mm 7 mps 748 mmHg 17%
    15:00 +40°C° 0 mm 7 mps 748 mmHg 19%
    16:00 +40°C° 0 mm 7 mps 747 mmHg 20%
    17:00 +38°C° 0 mm 7 mps 748 mmHg 25%
    18:00 +36°C° 0 mm 7 mps 748 mmHg 29%
    19:00 +34°C° 0 mm 6 mps 748 mmHg 34%
    20:00 +34°C° 0 mm 6 mps 749 mmHg 36%
    21:00 +33°C° 0 mm 6 mps 749 mmHg 38%
    22:00 +33°C° 0 mm 6 mps 749 mmHg 41%
    23:00 +32°C° 0 mm 6 mps 749 mmHg 44%
    Show more